Time,TemperatureF,DewpointF,PressureIn,WindDirection,WindDirectionDegrees,WindSpeedMPH,WindSpeedGustMPH,Humidity,HourlyPrecipIn,Conditions,Clouds,dailyrainin,SoftwareType,DateUTC
2013-10-28 00:00:00,52.2,38.3,29.83,SW,228,2.0,2.0,59,0.00,,,0.00,Wunderground v.1.15,2013-10-28 06:00:00,
2013-10-28 00:10:00,52.0,38.5,29.83,SW,233,2.0,2.0,60,0.00,,,0.00,Wunderground v.1.15,2013-10-28 06:10:00,
2013-10-28 00:15:00,51.8,38.3,29.83,SSW,199,1.0,2.0,60,0.00,,,0.00,Wunderground v.1.15,2013-10-28 06:15:00,
2013-10-28 00:25:00,51.3,38.3,29.83,SW,219,0.0,1.0,61,0.00,,,0.00,Wunderground v.1.15,2013-10-28 06:25:00,
2013-10-28 00:35:00,50.6,38.1,29.83,SSW,204,0.0,1.0,62,0.00,,,0.00,Wunderground v.1.15,2013-10-28 06:35:00,
2013-10-28 00:45:00,50.4,38.3,29.83,SSW,205,0.0,1.0,63,0.00,,,0.00,Wunderground v.1.15,2013-10-28 06:45:00,
2013-10-28 00:50:00,50.1,38.0,29.82,SSW,203,0.0,0.0,63,0.00,,,0.00,Wunderground v.1.15,2013-10-28 06:50:00,
2013-10-28 01:00:00,49.9,38.2,29.83,SSW,203,0.0,0.0,64,0.00,,,0.00,Wunderground v.1.15,2013-10-28 07:00:00,
2013-10-28 01:10:00,49.5,37.8,29.83,SW,217,0.0,0.0,64,0.00,,,0.00,Wunderground v.1.15,2013-10-28 07:10:00,
2013-10-28 01:15:00,49.3,38.0,29.82,SSW,198,0.0,0.0,65,0.00,,,0.00,Wunderground v.1.15,2013-10-28 07:15:00,
2013-10-28 01:25:00,50.4,38.7,29.82,SW,226,2.0,3.0,64,0.00,,,0.00,Wunderground v.1.15,2013-10-28 07:25:00,
2013-10-28 01:35:00,50.6,38.5,29.82,SSW,203,2.0,2.0,63,0.00,,,0.00,Wunderground v.1.15,2013-10-28 07:35:00,
2013-10-28 01:40:00,50.5,38.4,29.82,SSW,195,1.0,1.0,63,0.00,,,0.00,Wunderground v.1.15,2013-10-28 07:40:00,
2013-10-28 01:50:00,48.9,37.6,29.82,SSW,195,0.0,0.0,65,0.00,,,0.00,Wunderground v.1.15,2013-10-28 07:50:00,
2013-10-28 01:55:00,48.0,37.6,29.82,South,183,0.0,0.0,67,0.00,,,0.00,Wunderground v.1.15,2013-10-28 07:55:00,
2013-10-28 02:00:00,47.4,37.4,29.82,SSE,159,0.0,0.0,68,0.00,,,0.00,Wunderground v.1.15,2013-10-28 08:00:00,
2013-10-28 02:05:00,46.9,37.6,29.82,SSE,160,0.0,0.0,70,0.00,,,0.00,Wunderground v.1.15,2013-10-28 08:05:00,
2013-10-28 02:15:00,46.6,37.7,29.83,SSE,148,0.0,1.0,71,0.00,,,0.00,Wunderground v.1.15,2013-10-28 08:15:00,
2013-10-28 02:25:00,46.2,37.7,29.83,SSE,162,0.0,0.0,72,0.00,,,0.00,Wunderground v.1.15,2013-10-28 08:25:00,
2013-10-28 02:35:00,46.0,37.5,29.82,SE,144,0.0,0.0,72,0.00,,,0.00,Wunderground v.1.15,2013-10-28 08:35:00,
2013-10-28 02:45:00,45.7,37.2,29.82,SE,146,0.0,0.0,72,0.00,,,0.00,Wunderground v.1.15,2013-10-28 08:45:00,
2013-10-28 02:55:00,45.3,37.2,29.82,SSE,148,0.0,0.0,73,0.00,,,0.00,Wunderground v.1.15,2013-10-28 08:55:00,
2013-10-28 03:00:00,45.2,37.1,29.82,SSE,148,0.0,0.0,73,0.00,,,0.00,Wunderground v.1.15,2013-10-28 09:00:00,
2013-10-28 03:10:00,45.3,37.5,29.82,SSE,161,0.0,1.0,74,0.00,,,0.00,Wunderground v.1.15,2013-10-28 09:10:00,
2013-10-28 03:15:00,45.3,37.2,29.81,SSE,152,0.0,1.0,73,0.00,,,0.00,Wunderground v.1.15,2013-10-28 09:15:00,
2013-10-28 03:25:00,44.9,37.1,29.81,SE,146,0.0,0.0,74,0.00,,,0.00,Wunderground v.1.15,2013-10-28 09:25:00,
2013-10-28 03:35:00,44.7,37.3,29.81,SSE,147,0.0,0.0,75,0.00,,,0.00,Wunderground v.1.15,2013-10-28 09:35:00,
2013-10-28 03:45:00,44.3,37.2,29.81,SE,142,1.0,1.0,76,0.00,,,0.00,Wunderground v.1.15,2013-10-28 09:45:00,
2013-10-28 03:55:00,44.0,36.9,29.80,SE,143,0.0,1.0,76,0.00,,,0.00,Wunderground v.1.15,2013-10-28 09:55:00,
2013-10-28 04:00:00,43.9,37.2,29.80,SE,146,0.0,1.0,77,0.00,,,0.00,Wunderground v.1.15,2013-10-28 10:00:00,
2013-10-28 04:10:00,43.8,37.4,29.80,SE,141,1.0,1.0,78,0.00,,,0.00,Wunderground v.1.15,2013-10-28 10:10:00,
2013-10-28 04:15:00,43.7,37.3,29.80,East,84,1.0,2.0,78,0.00,,,0.00,Wunderground v.1.15,2013-10-28 10:15:00,
2013-10-28 04:25:00,43.7,37.3,29.80,ESE,105,1.0,1.0,78,0.00,,,0.00,Wunderground v.1.15,2013-10-28 10:25:00,
2013-10-28 04:30:00,43.8,37.4,29.80,NNE,18,1.0,1.0,78,0.00,,,0.00,Wunderground v.1.15,2013-10-28 10:30:00,
2013-10-28 04:35:00,43.7,37.3,29.80,NNE,22,1.0,2.0,78,0.00,,,0.00,Wunderground v.1.15,2013-10-28 10:35:00,
2013-10-28 04:45:00,43.5,37.1,29.80,NNE,25,1.0,2.0,78,0.00,,,0.00,Wunderground v.1.15,2013-10-28 10:45:00,
2013-10-28 04:55:00,43.4,37.3,29.80,SSE,157,1.0,1.0,79,0.00,,,0.00,Wunderground v.1.15,2013-10-28 10:55:00,
2013-10-28 05:00:00,43.5,37.4,29.80,SE,141,1.0,1.0,79,0.00,,,0.00,Wunderground v.1.15,2013-10-28 11:00:00,
2013-10-28 05:10:00,43.5,37.1,29.80,NE,43,1.0,1.0,78,0.00,,,0.00,Wunderground v.1.15,2013-10-28 11:10:00,
2013-10-28 05:15:00,43.3,37.2,29.80,SE,141,1.0,1.0,79,0.00,,,0.00,Wunderground v.1.15,2013-10-28 11:15:00,
2013-10-28 05:25:00,43.3,37.2,29.81,NNE,18,1.0,2.0,79,0.00,,,0.00,Wunderground v.1.15,2013-10-28 11:25:00,
2013-10-28 05:35:00,43.4,37.3,29.81,ENE,71,1.0,2.0,79,0.00,,,0.00,Wunderground v.1.15,2013-10-28 11:35:00,
2013-10-28 05:40:00,43.5,37.4,29.80,ESE,119,1.0,2.0,79,0.00,,,0.00,Wunderground v.1.15,2013-10-28 11:40:00,
2013-10-28 05:50:00,43.7,37.6,29.81,North,8,1.0,2.0,79,0.00,,,0.00,Wunderground v.1.15,2013-10-28 11:50:00,
2013-10-28 06:00:00,44.1,38.0,29.81,SE,143,1.0,1.0,79,0.00,,,0.00,Wunderground v.1.15,2013-10-28 12:00:00,
2013-10-28 06:10:00,44.5,38.1,29.81,SE,146,1.0,1.0,78,0.00,,,0.00,Wunderground v.1.15,2013-10-28 12:10:00,
2013-10-28 06:20:00,44.7,38.3,29.81,SSE,148,1.0,1.0,78,0.00,,,0.00,Wunderground v.1.15,2013-10-28 12:20:00,
2013-10-28 06:30:00,44.9,38.1,29.81,SE,144,1.0,1.0,77,0.00,,,0.00,Wunderground v.1.15,2013-10-28 12:30:00,
2013-10-28 06:40:00,45.0,38.2,29.82,SE,146,0.0,0.0,77,0.00,,,0.00,Wunderground v.1.15,2013-10-28 12:40:00,
2013-10-28 06:50:00,44.7,38.3,29.81,SSE,147,0.0,0.0,78,0.00,,,0.00,Wunderground v.1.15,2013-10-28 12:50:00,
2013-10-28 07:00:00,44.9,38.1,29.82,SSE,148,0.0,0.0,77,0.00,,,0.00,Wunderground v.1.15,2013-10-28 13:00:00,
2013-10-28 07:10:00,44.9,38.1,29.82,SSE,150,0.0,0.0,77,0.00,,,0.00,Wunderground v.1.15,2013-10-28 13:10:00,
2013-10-28 07:20:00,44.9,38.1,29.82,NE,53,1.0,1.0,77,0.00,,,0.00,Wunderground v.1.15,2013-10-28 13:20:00,
2013-10-28 07:30:00,44.6,38.2,29.83,NNE,16,1.0,1.0,78,0.00,,,0.00,Wunderground v.1.15,2013-10-28 13:30:00,
2013-10-28 07:40:00,44.9,38.1,29.83,NNE,21,1.0,1.0,77,0.00,,,0.00,Wunderground v.1.15,2013-10-28 13:40:00,
2013-10-28 07:50:00,44.9,38.5,29.84,NNE,24,0.0,0.0,78,0.00,,,0.00,Wunderground v.1.15,2013-10-28 13:50:00,
2013-10-28 08:00:00,45.0,38.6,29.84,NNE,24,0.0,0.0,78,0.00,,,0.00,Wunderground v.1.15,2013-10-28 14:00:00,
2013-10-28 08:10:00,45.1,38.6,29.85,NNE,25,0.0,0.0,78,0.00,,,0.00,Wunderground v.1.15,2013-10-28 14:10:00,
2013-10-28 08:20:00,45.4,38.9,29.84,NNE,25,0.0,0.0,78,0.00,,,0.00,Wunderground v.1.15,2013-10-28 14:20:00,
2013-10-28 08:30:00,45.8,39.0,29.85,NNE,25,0.0,0.0,77,0.00,,,0.00,Wunderground v.1.15,2013-10-28 14:30:00,
2013-10-28 08:40:00,46.7,39.5,29.85,North,357,1.0,1.0,76,0.00,,,0.00,Wunderground v.1.15,2013-10-28 14:40:00,
2013-10-28 08:50:00,47.3,39.8,29.85,SSE,148,1.0,1.0,75,0.00,,,0.00,Wunderground v.1.15,2013-10-28 14:50:00,
2013-10-28 09:00:00,48.2,40.3,29.86,SSE,149,0.0,0.0,74,0.00,,,0.00,Wunderground v.1.15,2013-10-28 15:00:00,
2013-10-28 09:10:00,49.4,40.4,29.86,SSE,150,0.0,0.0,71,0.00,,,0.00,Wunderground v.1.15,2013-10-28 15:10:00,
2013-10-28 09:20:00,50.4,40.6,29.85,SSE,150,0.0,0.0,69,0.00,,,0.00,Wunderground v.1.15,2013-10-28 15:20:00,
2013-10-28 09:30:00,51.5,40.5,29.85,SSE,150,0.0,0.0,66,0.00,,,0.00,Wunderground v.1.15,2013-10-28 15:30:00,
2013-10-28 09:40:00,52.4,41.0,29.85,South,170,0.0,0.0,65,0.00,,,0.00,Wunderground v.1.15,2013-10-28 15:40:00,
2013-10-28 09:50:00,52.8,40.5,29.85,South,183,0.0,0.0,63,0.00,,,0.00,Wunderground v.1.15,2013-10-28 15:50:00,
2013-10-28 10:00:00,53.3,40.6,29.85,South,183,0.0,0.0,62,0.00,,,0.00,Wunderground v.1.15,2013-10-28 16:00:00,
2013-10-28 10:10:00,53.4,40.7,29.85,South,189,0.0,0.0,62,0.00,,,0.00,Wunderground v.1.15,2013-10-28 16:10:00,
2013-10-28 10:15:00,53.3,40.6,29.85,South,188,0.0,0.0,62,0.00,,,0.00,Wunderground v.1.15,2013-10-28 16:15:00,
2013-10-28 10:20:00,53.9,41.2,29.85,SSW,199,0.0,0.0,62,0.00,,,0.00,Wunderground v.1.15,2013-10-28 16:20:00,
2013-10-28 10:30:00,55.1,41.0,29.84,SSW,203,1.0,1.0,59,0.00,,,0.00,Wunderground v.1.15,2013-10-28 16:30:00,
2013-10-28 10:40:00,55.4,41.3,29.84,SSW,200,1.0,1.0,59,0.00,,,0.00,Wunderground v.1.15,2013-10-28 16:40:00,
2013-10-28 10:50:00,56.6,41.1,29.84,SSW,195,1.0,2.0,56,0.00,,,0.00,Wunderground v.1.15,2013-10-28 16:50:00,
2013-10-28 10:55:00,56.6,41.1,29.84,SSW,199,1.0,2.0,56,0.00,,,0.00,Wunderground v.1.15,2013-10-28 16:55:00,
2013-10-28 11:00:00,56.7,41.2,29.84,SSW,207,1.0,1.0,56,0.00,,,0.00,Wunderground v.1.15,2013-10-28 17:00:00,
2013-10-28 11:10:00,57.7,41.2,29.83,SSW,202,0.0,0.0,54,0.00,,,0.00,Wunderground v.1.15,2013-10-28 17:10:00,
2013-10-28 11:20:00,57.7,41.2,29.83,SSW,212,1.0,1.0,54,0.00,,,0.00,Wunderground v.1.15,2013-10-28 17:20:00,
2013-10-28 11:25:00,57.9,40.9,29.83,South,189,1.0,1.0,53,0.00,,,0.00,Wunderground v.1.15,2013-10-28 17:25:00,
2013-10-28 11:35:00,58.4,40.8,29.83,South,181,0.0,0.0,52,0.00,,,0.00,Wunderground v.1.15,2013-10-28 17:35:00,
2013-10-28 11:45:00,58.8,41.2,29.82,South,188,0.0,0.0,52,0.00,,,0.00,Wunderground v.1.15,2013-10-28 17:45:00,
2013-10-28 11:50:00,58.9,41.3,29.82,South,188,0.0,0.0,52,0.00,,,0.00,Wunderground v.1.15,2013-10-28 17:50:00,
2013-10-28 12:00:00,60.1,41.4,29.82,South,188,0.0,0.0,50,0.00,,,0.00,Wunderground v.1.15,2013-10-28 18:00:00,
2013-10-28 12:10:00,59.8,41.1,29.82,South,183,0.0,0.0,50,0.00,,,0.00,Wunderground v.1.15,2013-10-28 18:10:00,
2013-10-28 12:15:00,59.9,40.7,29.82,South,174,0.0,1.0,49,0.00,,,0.00,Wunderground v.1.15,2013-10-28 18:15:00,
2013-10-28 12:25:00,59.4,40.7,29.81,South,185,2.0,3.0,50,0.00,,,0.00,Wunderground v.1.15,2013-10-28 18:25:00,
2013-10-28 12:30:00,59.1,41.0,29.82,SSW,194,2.0,2.0,51,0.00,,,0.00,Wunderground v.1.15,2013-10-28 18:30:00,
2013-10-28 12:40:00,59.2,41.1,29.81,South,191,1.0,1.0,51,0.00,,,0.00,Wunderground v.1.15,2013-10-28 18:40:00,
2013-10-28 12:50:00,59.2,40.6,29.80,South,176,1.0,1.0,50,0.00,,,0.00,Wunderground v.1.15,2013-10-28 18:50:00,
2013-10-28 12:55:00,59.8,40.6,29.79,SSW,200,2.0,2.0,49,0.00,,,0.00,Wunderground v.1.15,2013-10-28 18:55:00,
2013-10-28 13:00:00,60.3,40.5,29.80,SSW,207,2.0,2.0,48,0.00,,,0.00,Wunderground v.1.15,2013-10-28 19:00:00,
2013-10-28 13:10:00,60.8,39.9,29.79,SW,215,1.0,3.0,46,0.00,,,0.00,Wunderground v.1.15,2013-10-28 19:10:00,
2013-10-28 13:15:00,61.3,40.9,29.78,South,174,1.0,5.0,47,0.00,,,0.00,Wunderground v.1.15,2013-10-28 19:15:00,
2013-10-28 13:25:00,62.4,40.8,29.78,South,177,1.0,1.0,45,0.00,,,0.00,Wunderground v.1.15,2013-10-28 19:25:00,
2013-10-28 13:35:00,62.7,40.5,29.77,South,179,1.0,2.0,44,0.00,,,0.00,Wunderground v.1.15,2013-10-28 19:35:00,
2013-10-28 13:45:00,64.0,40.4,29.76,SSE,164,1.0,2.0,42,0.00,,,0.00,Wunderground v.1.15,2013-10-28 19:45:00,
2013-10-28 13:55:00,65.4,39.1,29.76,SSW,192,1.0,1.0,38,0.00,,,0.00,Wunderground v.1.15,2013-10-28 19:55:00,
2013-10-28 14:00:00,66.4,40.0,29.76,SSW,204,1.0,1.0,38,0.00,,,0.00,Wunderground v.1.15,2013-10-28 20:00:00,
2013-10-28 14:10:00,66.8,39.0,29.76,South,189,1.0,1.0,36,0.00,,,0.00,Wunderground v.1.15,2013-10-28 20:10:00,
2013-10-28 14:15:00,66.6,38.8,29.75,South,186,1.0,2.0,36,0.00,,,0.00,Wunderground v.1.15,2013-10-28 20:15:00,
2013-10-28 14:25:00,66.4,37.9,29.75,SW,223,3.0,4.0,35,0.00,,,0.00,Wunderground v.1.15,2013-10-28 20:25:00,
2013-10-28 14:35:00,66.4,37.9,29.74,South,172,2.0,2.0,35,0.00,,,0.00,Wunderground v.1.15,2013-10-28 20:35:00,
2013-10-28 14:45:00,67.1,37.0,29.74,SW,233,2.0,2.0,33,0.00,,,0.00,Wunderground v.1.15,2013-10-28 20:45:00,
2013-10-28 14:55:00,67.2,36.3,29.75,SSW,199,2.0,2.0,32,0.00,,,0.00,Wunderground v.1.15,2013-10-28 20:55:00,
2013-10-28 15:00:00,67.6,35.9,29.75,SSW,196,1.0,1.0,31,0.00,,,0.00,Wunderground v.1.15,2013-10-28 21:00:00,
2013-10-28 15:05:00,67.3,35.6,29.74,South,179,1.0,1.0,31,0.00,,,0.00,Wunderground v.1.15,2013-10-28 21:05:00,
2013-10-28 15:15:00,68.9,36.2,29.74,South,189,1.0,1.0,30,0.00,,,0.00,Wunderground v.1.15,2013-10-28 21:15:00,
2013-10-28 15:20:00,68.9,35.3,29.74,SSW,202,1.0,1.0,29,0.00,,,0.00,Wunderground v.1.15,2013-10-28 21:20:00,
2013-10-28 15:25:00,68.3,35.6,29.74,SW,214,1.0,1.0,30,0.00,,,0.00,Wunderground v.1.15,2013-10-28 21:25:00,
2013-10-28 15:35:00,69.7,35.1,29.74,SSW,194,1.0,3.0,28,0.00,,,0.00,Wunderground v.1.15,2013-10-28 21:35:00,
2013-10-28 15:45:00,68.2,34.7,29.73,South,174,1.0,1.0,29,0.00,,,0.00,Wunderground v.1.15,2013-10-28 21:45:00,
2013-10-28 15:55:00,68.3,33.9,29.73,South,191,2.0,4.0,28,0.00,,,0.00,Wunderground v.1.15,2013-10-28 21:55:00,
2013-10-28 16:00:00,68.4,33.1,29.73,SW,235,2.0,2.0,27,0.00,,,0.00,Wunderground v.1.15,2013-10-28 22:00:00,
2013-10-28 16:10:00,68.7,33.3,29.73,South,173,2.0,3.0,27,0.00,,,0.00,Wunderground v.1.15,2013-10-28 22:10:00,
2013-10-28 16:15:00,68.0,32.7,29.73,SSW,193,3.0,3.0,27,0.00,,,0.00,Wunderground v.1.15,2013-10-28 22:15:00,
2013-10-28 16:25:00,68.5,32.2,29.73,SW,232,3.0,5.0,26,0.00,,,0.00,Wunderground v.1.15,2013-10-28 22:25:00,
2013-10-28 16:35:00,68.6,30.3,29.73,South,177,3.0,8.0,24,0.00,,,0.00,Wunderground v.1.15,2013-10-28 22:35:00,
2013-10-28 16:45:00,68.1,28.9,29.73,South,188,4.0,5.0,23,0.00,,,0.00,Wunderground v.1.15,2013-10-28 22:45:00,
2013-10-28 16:50:00,67.7,28.5,29.74,SW,229,4.0,8.0,23,0.00,,,0.00,Wunderground v.1.15,2013-10-28 22:50:00,
2013-10-28 16:55:00,67.3,28.2,29.73,SSW,206,4.0,8.0,23,0.00,,,0.00,Wunderground v.1.15,2013-10-28 22:55:00,
2013-10-28 17:00:00,67.1,29.1,29.74,South,172,4.0,4.0,24,0.00,,,0.00,Wunderground v.1.15,2013-10-28 23:00:00,
2013-10-28 17:10:00,66.6,28.6,29.74,SSW,197,3.0,3.0,24,0.00,,,0.00,Wunderground v.1.15,2013-10-28 23:10:00,
2013-10-28 17:20:00,66.1,29.2,29.74,SSW,200,3.0,4.0,25,0.00,,,0.00,Wunderground v.1.15,2013-10-28 23:20:00,
2013-10-28 17:30:00,65.7,28.9,29.74,SW,222,3.0,5.0,25,0.00,,,0.00,Wunderground v.1.15,2013-10-28 23:30:00,
2013-10-28 17:40:00,65.4,29.6,29.74,WSW,250,2.0,4.0,26,0.00,,,0.00,Wunderground v.1.15,2013-10-28 23:40:00,
2013-10-28 17:50:00,64.8,29.1,29.74,SW,227,1.0,3.0,26,0.00,,,0.00,Wunderground v.1.15,2013-10-28 23:50:00,
2013-10-28 18:00:00,64.3,29.6,29.75,SSW,203,1.0,1.0,27,0.00,,,0.00,Wunderground v.1.15,2013-10-29 00:00:00,
2013-10-28 18:10:00,63.9,28.3,29.75,SSW,204,1.0,8.0,26,0.00,,,0.00,Wunderground v.1.15,2013-10-29 00:10:00,
2013-10-28 18:20:00,63.2,29.5,29.75,SW,214,1.0,1.0,28,0.00,,,0.00,Wunderground v.1.15,2013-10-29 00:20:00,
2013-10-28 18:30:00,61.5,29.7,29.75,SW,214,0.0,8.0,30,0.00,,,0.00,Wunderground v.1.15,2013-10-29 00:30:00,
2013-10-28 18:40:00,60.5,28.9,29.75,SSW,207,0.0,8.0,30,0.00,,,0.00,Wunderground v.1.15,2013-10-29 00:40:00,
2013-10-28 18:50:00,61.1,28.6,29.76,SSW,203,1.0,1.0,29,0.00,,,0.00,Wunderground v.1.15,2013-10-29 00:50:00,
2013-10-28 19:00:00,60.5,28.1,29.76,SSW,206,0.0,0.0,29,0.00,,,0.00,Wunderground v.1.15,2013-10-29 01:00:00,
2013-10-28 19:10:00,59.8,29.1,29.76,SSW,205,0.0,0.0,31,0.00,,,0.00,Wunderground v.1.15,2013-10-29 01:10:00,
2013-10-28 19:20:00,58.5,28.7,29.76,SW,235,0.0,1.0,32,0.00,,,0.00,Wunderground v.1.15,2013-10-29 01:20:00,
2013-10-28 19:30:00,57.7,27.2,29.77,WSW,241,1.0,2.0,31,0.00,,,0.00,Wunderground v.1.15,2013-10-29 01:30:00,
2013-10-28 19:40:00,57.6,25.5,29.78,SW,230,2.0,3.0,29,0.00,,,0.00,Wunderground v.1.15,2013-10-29 01:40:00,
2013-10-28 19:50:00,58.0,25.9,29.78,SW,223,2.0,2.0,29,0.00,,,0.00,Wunderground v.1.15,2013-10-29 01:50:00,
2013-10-28 20:00:00,56.8,26.5,29.79,SW,216,1.0,1.0,31,0.00,,,0.00,Wunderground v.1.15,2013-10-29 02:00:00,
2013-10-28 20:15:00,55.5,26.1,29.79,SW,222,2.0,2.0,32,0.00,,,0.00,Wunderground v.1.15,2013-10-29 02:15:00,
2013-10-28 20:20:00,55.2,25.8,29.79,SW,217,2.0,2.0,32,0.00,,,0.00,Wunderground v.1.15,2013-10-29 02:20:00,
2013-10-28 20:30:00,55.2,25.8,29.80,WNW,288,1.0,2.0,32,0.00,,,0.00,Wunderground v.1.15,2013-10-29 02:30:00,
2013-10-28 20:40:00,55.4,25.2,29.80,NNW,329,2.0,3.0,31,0.00,,,0.00,Wunderground v.1.15,2013-10-29 02:40:00,
2013-10-28 20:50:00,55.9,25.7,29.80,SW,231,3.0,3.0,31,0.00,,,0.00,Wunderground v.1.15,2013-10-29 02:50:00,
2013-10-28 21:00:00,56.1,25.8,29.80,SSW,197,1.0,1.0,31,0.00,,,0.00,Wunderground v.1.15,2013-10-29 03:00:00,
2013-10-28 21:10:00,55.1,26.5,29.81,SW,235,1.0,2.0,33,0.00,,,0.00,Wunderground v.1.15,2013-10-29 03:10:00,
2013-10-28 21:20:00,53.9,26.1,29.81,South,189,0.0,0.0,34,0.00,,,0.00,Wunderground v.1.15,2013-10-29 03:20:00,
2013-10-28 21:30:00,54.5,26.0,29.82,SSW,202,1.0,1.0,33,0.00,,,0.00,Wunderground v.1.15,2013-10-29 03:30:00,
2013-10-28 21:35:00,54.8,26.2,29.82,SSW,201,0.0,1.0,33,0.00,,,0.00,Wunderground v.1.15,2013-10-29 03:35:00,
2013-10-28 21:45:00,54.5,26.0,29.82,SSW,203,0.0,0.0,33,0.00,,,0.00,Wunderground v.1.15,2013-10-29 03:45:00,
2013-10-28 21:55:00,55.2,25.8,29.82,SW,221,1.0,1.0,32,0.00,,,0.00,Wunderground v.1.15,2013-10-29 03:55:00,
2013-10-28 22:00:00,54.9,25.6,29.82,SW,220,1.0,1.0,32,0.00,,,0.00,Wunderground v.1.15,2013-10-29 04:00:00,
2013-10-28 22:05:00,54.5,25.2,29.82,SW,225,0.0,1.0,32,0.00,,,0.00,Wunderground v.1.15,2013-10-29 04:05:00,
2013-10-28 22:10:00,54.7,25.4,29.82,SW,229,1.0,1.0,32,0.00,,,0.00,Wunderground v.1.15,2013-10-29 04:10:00,
2013-10-28 22:15:00,55.2,25.1,29.82,NW,308,2.0,5.0,31,0.00,,,0.00,Wunderground v.1.15,2013-10-29 04:15:00,
2013-10-28 22:25:00,56.7,24.8,29.82,SW,221,4.0,5.0,29,0.00,,,0.00,Wunderground v.1.15,2013-10-29 04:25:00,
2013-10-28 22:35:00,57.6,24.7,29.82,WSW,252,5.0,8.0,28,0.00,,,0.00,Wunderground v.1.15,2013-10-29 04:35:00,
2013-10-28 22:40:00,58.2,24.3,29.82,SW,229,6.0,9.0,27,0.00,,,0.00,Wunderground v.1.15,2013-10-29 04:40:00,
2013-10-28 22:45:00,58.3,24.4,29.82,SSW,207,6.0,9.0,27,0.00,,,0.00,Wunderground v.1.15,2013-10-29 04:45:00,
2013-10-28 22:55:00,57.9,24.1,29.83,SSW,203,4.0,5.0,27,0.00,,,0.00,Wunderground v.1.15,2013-10-29 04:55:00,
2013-10-28 23:00:00,57.6,24.7,29.82,South,176,4.0,5.0,28,0.00,,,0.00,Wunderground v.1.15,2013-10-29 05:00:00,
2013-10-28 23:10:00,57.4,24.5,29.82,SSW,204,4.0,4.0,28,0.00,,,0.00,Wunderground v.1.15,2013-10-29 05:10:00,
2013-10-28 23:15:00,57.3,24.4,29.82,WSW,257,4.0,5.0,28,0.00,,,0.00,Wunderground v.1.15,2013-10-29 05:15:00,
2013-10-28 23:25:00,57.0,24.2,29.82,SSW,195,4.0,4.0,28,0.00,,,0.00,Wunderground v.1.15,2013-10-29 05:25:00,
2013-10-28 23:35:00,56.7,23.9,29.82,WSW,245,5.0,8.0,28,0.00,,,0.00,Wunderground v.1.15,2013-10-29 05:35:00,
2013-10-28 23:45:00,56.8,24.0,29.82,WSW,254,4.0,5.0,28,0.00,,,0.00,Wunderground v.1.15,2013-10-29 05:45:00,
2013-10-28 23:55:00,57.0,23.3,29.82,WSW,240,3.0,7.0,27,0.00,,,0.00,Wunderground v.1.15,2013-10-29 05:55:00,